Regional Weather Roundup
Issued by NWS

Home | Current Version | Previous Version | Graphics & Text | Print | Product List | Glossary On
Versions: 1 2 3 4 5 6 7 8 9 10 11 12 13 14 15 16 17 18 19 20 21 22 23 24 25 26 27 28 29 30 31 32 33 34 35 36 37 38 39 40 41 42 43 44 45 46 47 48 49 50
000
ASUS45 KBOU 300710
RWRCO

WEATHER ROUNDUP FOR COLORADO
NATIONAL WEATHER SERVICE DENVER/BOULDER CO
100 AM MDT FRI SEP 30 2016

NOTE: "FAIR" INDICATES FEW OR NO CLOUDS BELOW 12000 FEET WITH NO
SIGNIFICANT WEATHER AND/OR OBSTRUCTIONS TO VISIBILITY.

COZ001>005-013-030-031-300800-
...NORTHWEST COLORADO...

CITY           SKY/WX    TMP DP  RH WIND       PRES   REMARKS
CRAIG          LGT RAIN  54  51  90 SE3       30.36S
HAYDEN         MOCLDY    54  46  76 CALM      30.38S
MEEKER         LGT RAIN  55  51  86 N6        30.37F
MOUNT WERNER   NOT AVBL
STEAMBOAT SPGS CLOUDY    51  46  83 CALM      30.38F
WALDEN           N/A     43  36  75 E3        30.44S
$$

COZ006>008-011-300800-
...WEST CENTRAL VALLEYS...

CITY           SKY/WX    TMP DP  RH WIND       PRES   REMARKS
GRAND JUNCTION LGT RAIN  58  54  86 E8        30.32S
MONTROSE       CLOUDY    55  53  93 SE5       30.40S
EAGLE          CLOUDY    52  43  71 E7        30.40S
RIFLE          CLOUDY    57  55  93 S5        30.35F
DELTA          CLOUDY    60  57  90 CALM      30.36F
NUCLA          NOT AVBL
$$

COZ017>023-064>068-300800-
...SOUTHWEST COLORADO...

CITY           SKY/WX    TMP DP  RH WIND       PRES   REMARKS
DURANGO        CLOUDY    53  49  86 CALM      30.43F
CORTEZ         CLOUDY    52  51  97 NE5       30.39F
PAGOSA SPRINGS CLOUDY    53  45  75 CALM      30.48S
TELLURIDE      CLOUDY    47  47 100 W3        30.53F
WOLF CREEK PAS DRIZZLE   36  36 100 MISG      30.69S
$$

COZ009-010-012-014-032>034-037-058>063-300800-
...CENTRAL COLORADO...

CITY           SKY/WX    TMP DP  RH WIND       PRES   REMARKS
ASPEN          CLOUDY    49  43  80 CALM      30.44F
BUENA VISTA    CLOUDY    53  32  46 CALM      30.42S
COPPER MTN     FAIR      45  32  61 S9        30.64F
BERTHOUD PASS  FAIR      34  21  60 N13G21    30.66F WCI  25
COTTONWOOD PAS CLOUDY    52  34  50 SW6       30.53S
GUNNISON       FAIR      50  43  77 W6        30.44S
KREMMLING      CLOUDY    50  36  57 SE3       30.42S
LEADVILLE      CLOUDY    41  29  62 NW5       30.51F
MONARCH PASS   CLOUDY    39  34  81 W13       30.74F
SALIDA         FAIR      55  36  48 SW5       30.46F
SUNLIGHT       DRIZZLE   43  43 100 SW7       30.61F
WILKERSON PASS FAIR      43  30  61 SW14G23   30.61F
$$

COZ069>075-300800-
...SAN LUIS VALLEY/SANGRE DE CRISTO MOUNTAINS...

CITY           SKY/WX    TMP DP  RH WIND       PRES   REMARKS
ALAMOSA        MOCLDY    48  39  71 SE5       30.43S
LA VETA PASS   NOT AVBL
SAGUACHE       CLOUDY    54  36  50 NW5       30.43F
$$

COZ035-036-038>040-300800-
...NORTHERN COLORADO FRONT RANGE...

CITY           SKY/WX    TMP DP  RH WIND       PRES   REMARKS
DENVER INTL AP FAIR      61  38  42 W7        30.22F
DMNS CITY PARK   N/A     56  44  64 S2        30.23S
AURORA         PTCLDY    58  39  50 SW5       30.24R
FRONT RANGE AP NOT AVBL
ERIE MUNI ARPT FAIR      51  39  63 S3        30.21F
BOULDER MUN AP FAIR      59  37  44 S3        30.21F
CENTENNIAL     FAIR      60  37  42 VRB3      30.24F
BROOMFIELD     FAIR      63  36  36 N3        30.24F
FORT COLLINS   FAIR      55  39  54 N8        30.21F
LONGMONT       FAIR      54  40  59 SW5       30.22F
$$

COZ041-046-047-076>085-087-088-300800-
...PIKES PEAK/PALMER DIVIDE AND SOUTHERN FOOTHILLS...

CITY           SKY/WX    TMP DP  RH WIND       PRES   REMARKS
COLO. SPRINGS  FAIR      52  38  58 NE9       30.30F
A. F. ACADEMY  FAIR      48  36  64 N9        30.30F
SCHRIEVER AFB  NOT AVBL
ELLICOTT       NOT AVBL
FALCON         FAIR      52  38  60 N3        30.33F
FORT CARSON    FAIR      55  38  53 NW6       30.26F
LIMON          FAIR      46  40  79 SE6       30.27F
MONUMENT HILL  FAIR      52  34  50 S9        30.33F
TRINIDAD       FAIR      62  31  31 S5        30.27F
$$

COZ042>045-048>051-090-091-300800-
...NORTHEAST COLORADO...

CITY           SKY/WX    TMP DP  RH WIND       PRES   REMARKS
GREELEY ARPT   FAIR      55  41  58 NE3       30.19F
AKRON          FAIR      50  40  68 SE14      30.23F
BURLINGTON     FAIR      52  39  61 S17       30.27F
WRAY           FAIR      48  37  66 E6        30.26F
STERLING       FAIR      55  43  62 S8        30.20F
HOLYOKE        FAIR      52  39  62 SE8       30.27S
FORT MORGAN    FAIR      51  40  65 NE6       30.22F
$$

COZ086-089-092>099-300800-
...SOUTHEAST COLORADO...

CITY           SKY/WX    TMP DP  RH WIND       PRES   REMARKS
PUEBLO         FAIR      58  36  43 N9        30.19F
LA JUNTA       FAIR      62  41  46 SE8       30.19F
LAMAR          FAIR      57  42  57 E8        30.21F
SPRINGFIELD      N/A     50  44  80 S13       30.26F
$$



USA.gov is the U.S. government's official web portal to all federal, state and local government web resources and services.